Regional Weather Roundup
Issued by NWS State College, PA

Home | Current Version | Previous Version | Text Only | Print | Product List | Glossary On
Versions: 1 2 3 4 5 6 7 8 9 10 11 12 13 14 15 16 17 18 19 20 21 22 23 24 25 26 27 28 29 30 31 32 33 34 35 36 37 38 39 40 41 42 43 44 45 46 47 48 49 50
000
ASUS41 KCTP 251510
RWRCTP

REGIONAL WEATHER ROUNDUP
NATIONAL WEATHER SERVICE STATE COLLEGE PA
1100 AM EDT TUE APR 25 2017

Note: "fair" indicates few or no clouds below 12,000 feet with no
significant weather and/or obstructions to visibility.

* = STATION THAT DOES NOT REPORT PRECIPITATION /E.G. RAIN...SNOW...ETC/
    THUNDER OR FOG.

PAZ002>004-007>009-013>016-020>023-029>032-251600-
WESTERN PENNSYLVANIA

CITY           SKY/WX    TMP DP  RH WIND       PRES   REMARKS
ERIE           LGT RAIN  56  51  84 SE7       29.94S
MEADVILLE      LGT RAIN  53  51  93 E8G18     29.93F
FRANKLIN*      CLOUDY    54  46  76 E5        29.96F
NEW CASTLE     CLOUDY    56  51  84 E5        29.92F
BEAVER COUNTY  PTSUNNY   54  50  87 E7        29.92F
BUTLER*        CLOUDY    54  48  82 E10       29.93F
PITTSBURGH INT CLOUDY    53  51  93 E12       29.91F
PITTSBURGH     CLOUDY    54  48  80 VRB7      29.90F
INDIANA*       PTSUNNY   57  50  77 E8G16     29.96S
LATROBE        PTSUNNY   55  50  82 E14       29.92F
WASHINGTON CO* CLOUDY    54  48  82 E8        29.91F
$$

PAZ004>006-010>012-017>019-024>028-033>037-041-042-045-046-049>053-251600-
CENTRAL PENNSYLVANIA

CITY           SKY/WX    TMP DP  RH WIND       PRES   REMARKS
BRADFORD       LGT RAIN  50  47  89 SE9       29.99F
DUBOIS         CLOUDY    54  48  80 E12       29.96F
CLEARFIELD     CLOUDY    55  47  74 E9        29.99S
JOHNSTOWN      CLOUDY    49  47  93 E10       29.92F
ALTOONA        CLOUDY    52  48  86 NE10      29.96F
STATE COLLEGE  CLOUDY    54  48  82 NE7       29.99F
WILLIAMSPORT   CLOUDY    58  50  75 E8        30.01F
SELINSGROVE    CLOUDY    56  51  84 NE7       30.00F
FT INDIANTOWN  CLOUDY    54  54  99 E14G20    29.99S
CAPITAL CITY   CLOUDY    55  49  80 E14       29.97F
HARRISBURG     CLOUDY    54  51  90 E14G23    29.96F
YORK           CLOUDY    53  52  96 E16G23    29.96F
$$

PAZ038>040-043-044-047-048-054-055-060>062-067>071-251600-
EASTERN PENNSYLVANIA

CITY           SKY/WX    TMP DP  RH WIND       PRES   REMARKS
SCRANTON       CLOUDY    52  46  80 E9        30.06F
MOUNT POCONO   CLOUDY    45  45 100 E16G25    30.06F FOG
ALLENTOWN      CLOUDY    54  47  77 NE16      30.04F
QUAKERTOWN*    CLOUDY    54  50  87 NE13G20   30.03F
READING        CLOUDY    54  52  93 NE8G22    29.99F
LANCASTER      LGT RAIN  54  53  97 E15G25    29.98S
COATESVILLE    CLOUDY    54  54 100 NE9G23    29.98S FOG
POTTSTOWN      CLOUDY    52  50  93 E10G24    30.03R
BLUE BELL      CLOUDY    52  52 100 NE15G24   30.02S
DOYLESTOWN     CLOUDY    53  52  96 VRB7      30.01F
WILLOW GROVE   NOT AVBL
NORTH PHILA    CLOUDY    55  52  89 NE20G30   30.02F
PHILADELPHIA   CLOUDY    55  52  89 NE17G26   29.98F
$$



USA.gov is the U.S. government's official web portal to all federal, state and local government web resources and services.